コルレヴィッチ彗星

203P/Korlevic (2000)

English version
Home page
Total 6,336 html files since Dec. 4, 1995
Updated on September 15, 2008

---------------------------------------------------------------------

・ プロフィール

符号 203P/1999 WJ7
発見日 1999年11月28日
発見光度 17.9等
発見者 Korado Korlevic (Visnjan)

・ 軌道要素

Epoch 2000 Feb. 26.0 TT = JDT 2451600.5
T 2000 Feb. 15.80254 TT                                 MPC
q   3.1673328            (2000.0)            P               Q
n   0.09880942     Peri.  154.53149     +0.08549632     -0.99514889
a   4.6337984      Node   290.53264     +0.90500234     +0.09799874
e   0.3164716      Incl.    2.97929     +0.41672669     -0.00865680
P   9.97

・ 星図

・ 光度変化

        m1 = 12.0 + 5 logΔ +  5.0 log r  [   ,280]  (              〜2000年11月21日)
        m1 = 39.2 + 5 logΔ - 45   log r  [280,370]  (2000年11月21日〜2001年02月19日)
        m1 = -3.3 + 5 logΔ + 30   log r  [370,520]  (2001年02月19日〜2001年07月19日)
        m1 = 12.0 + 5 logΔ +  5.0 log r  [520,   ]  (2001年07月19日〜              )

        ※ 灰色の曲線は、m1 = 12.0 + 5 logΔ + 5.0 log r の光度曲線です。

---------------------------------------------------------------------

軌道要素はM.P.E.C. 2008-R53に掲載されたものです。
星図は StellaNavigator Ver.2.0 for Windows (アストロアーツ編著 / アスキー出版局刊) で作成したものです。
光度グラフはComet for Windowsで作成したものです。

---------------------------------------------------------------------

Copyright(C) 1995-2008 Seiichi Yoshida (comet@aerith.net). All rights reserved.